2022-118A (53884 NORAD) Tracking and Keplerian Element Data

This shows tracking and keplerian element data for the satellite.

Feedback or suggestion? Click here.




ElementValue
Catalog53884
Name2022-118A
Epoch Orbit873
Epoch Day325.30750959
Epoch Year2022
RAAN331.9003
Inclination97.5199
Eccentricity0.0016994
Argument of Perigee63.9651
Mean Anonmoly59.6734
Mean Motion15.23425861
Decay Rate3.762E-05
L11 53884U 22118A 22325.30750959 .00003762 00000+0 16047-3 0 9992
L22 53884 97.5199 331.9003 0016994 63.9651 59.6734 15.23425861 8737



Live tracking and technical data element details for 2022-118A (NORAD 53884). 2022-118A can be tracked NOW for your location showing map with azimuth and elevation plus other details from your city location.







IsCatalogInMostPopularTable: catalog: 53884, numindb: 1
Update: records affected: 1



GetName: 53884 2022-118A

Hit Count: updated at: Thu, 08 Dec 2022 10:46:10 GMT